Weather History for North Adams, MA

Change the Weather History Date:

Tuesday, June 18, 2013

  Actual Average Record
Temperature  
Mean Temperature 60 °F -  
Max Temperature 68 °F 75 °F 91 °F (2006)
Min Temperature 52 °F 52 °F 45 °F (2008)
Degree Days  
Heating Degree Days 6    
Growing Degree Days 10 (Base 50)    
Moisture  
Dew Point 55 °F    
Average Humidity 90    
Maximum Humidity 100    
Minimum Humidity 64    
Precipitation  
Precipitation 0.12 in - - ()
Sea Level Pressure  
Sea Level Pressure 29.93 in    
Wind  
Wind Speed 1 mph (SW)    
Max Wind Speed 7 mph    
Max Gust Speed -    
Visibility 5 miles    
Events Fog , Rain    
Averages and records for this station are not official NWS values.
T = Trace of Precipitation, MM = Missing Value Source: NWS Daily Summary

Daily Weather History Graph

Daily Weather History Graph

Search for Another Location

Airport:

Trip Planner

Search our weather history database for the weather conditions in past years. The results will help you decide how hot, cold, wet, or windy it might be!

Date:

Astronomy

Jun. 18, 2013 Rise Set
Actual Time 5:14 AM EDT 8:33 PM EDT
Civil Twilight 4:39 AM EDT 9:08 PM EDT
Nautical Twilight 3:53 AM EDT 9:54 PM EDT
Astronomical Twilight 2:57 AM EDT 10:50 PM EDT
Moon 3:09 PM EDT (6/18) 1:27 AM EDT (6/18)
Length of Visible Light 16h 29m
Length of Day
15h 19m
Waxing Gibbous, 70% of the Moon is Illuminated
Jun 18
Waxing Gibbous
Jun 23
Full
Jun 30
Last Quarter
Jul 8
New
Jul 15
First Quarter

Hourly Weather History & Observations

Time (EDT) Temp. Dew Point Humidity Pressure Visibility Wind Dir Wind Speed Gust Speed Precip Events Conditions
12:03 AM 55.4 °F 55.4 °F 100% 29.93 in 3.0 mi Calm Calm - N/A   Partly Cloudy
12:52 AM 55.0 °F 54.0 °F 96% 29.93 in 2.0 mi Calm Calm - 0.01 in   Clear
1:02 AM 55.4 °F 53.6 °F 94% 29.93 in 1.2 mi Calm Calm - N/A   Partly Cloudy
1:18 AM 55.4 °F 53.6 °F 94% 29.93 in 2.0 mi Calm Calm - 0.01 in   Scattered Clouds
1:30 AM 55.4 °F 53.6 °F 94% 29.92 in 5.0 mi East 3.5 mph - 0.01 in   Scattered Clouds
1:52 AM 55.0 °F 54.0 °F 96% 29.92 in 2.0 mi Calm Calm - 0.01 in   Partly Cloudy
2:03 AM 53.6 °F 53.6 °F 100% 29.92 in 4.0 mi Calm Calm - N/A   Clear
2:09 AM 53.6 °F 53.6 °F 100% 29.92 in 1.5 mi Calm Calm - 0.01 in   Partly Cloudy
2:11 AM 53.6 °F 53.6 °F 100% 29.92 in 1.0 mi Calm Calm - 0.01 in   Mist
2:18 AM 53.6 °F 53.6 °F 100% 29.92 in 0.2 mi Calm Calm - 0.01 in Fog Fog
2:52 AM 54.0 °F 53.1 °F 97% 29.92 in 0.2 mi Calm Calm - 0.01 in Fog Fog
3:31 AM 53.6 °F 51.8 °F 94% 29.91 in 0.8 mi Calm Calm - N/A   Mist
3:41 AM 53.6 °F 53.6 °F 100% 29.91 in 1.2 mi Calm Calm - N/A   Overcast
3:47 AM 55.4 °F 53.6 °F 94% 29.91 in 2.0 mi Calm Calm - 0.01 in   Overcast
3:52 AM 55.0 °F 54.0 °F 96% 29.91 in 2.5 mi Calm Calm - 0.01 in   Overcast
4:04 AM 55.4 °F 53.6 °F 94% 29.91 in 1.2 mi Calm Calm - N/A   Overcast
4:17 AM 55.4 °F 53.6 °F 94% 29.92 in 0.8 mi Calm Calm - N/A   Mist
4:52 AM 55.0 °F 55.0 °F 100% 29.93 in 2.5 mi Calm Calm - N/A   Overcast
5:02 AM 55.4 °F 55.4 °F 100% 29.92 in 1.5 mi Calm Calm - N/A   Overcast
5:22 AM 55.4 °F 53.6 °F 94% 29.92 in 2.0 mi Calm Calm - N/A   Overcast
5:30 AM 55.4 °F 53.6 °F 94% 29.93 in 1.2 mi Calm Calm - N/A   Overcast
5:52 AM 55.0 °F 55.0 °F 100% 29.93 in 1.2 mi Calm Calm - N/A   Overcast
6:05 AM 55.4 °F 53.6 °F 94% 29.93 in 0.5 mi Calm Calm - N/A Fog Fog
6:28 AM 55.4 °F 55.4 °F 100% 29.93 in 0.2 mi Calm Calm - N/A Fog Fog
6:43 AM 55.4 °F 55.4 °F 100% 29.93 in 1.0 mi Calm Calm - N/A   Mist
6:47 AM 55.4 °F 55.4 °F 100% 29.93 in 2.0 mi Calm Calm - N/A   Overcast
6:52 AM 55.0 °F 55.0 °F 100% 29.94 in 3.0 mi Calm Calm - N/A   Overcast
7:07 AM 55.4 °F 55.4 °F 100% 29.93 in 1.8 mi Calm Calm - N/A   Overcast
7:29 AM 55.4 °F 55.4 °F 100% 29.94 in 0.8 mi Calm Calm - N/A   Overcast
7:45 AM 55.4 °F 55.4 °F 100% 29.94 in 0.2 mi Calm Calm - N/A Fog Fog
7:52 AM 55.9 °F 55.0 °F 97% 29.95 in 0.5 mi Calm Calm - N/A Fog Fog
8:10 AM 57.2 °F 55.4 °F 94% 29.94 in 1.2 mi ESE 3.5 mph - N/A   Overcast
8:14 AM 57.2 °F 55.4 °F 94% 29.94 in 2.0 mi Calm Calm - N/A   Overcast
8:24 AM 57.2 °F 57.2 °F 100% 29.94 in 4.0 mi Calm Calm - N/A   Overcast
8:52 AM 59.0 °F 57.0 °F 93% 29.94 in 10.0 mi Calm Calm - N/A   Mostly Cloudy
9:08 AM 60.8 °F 57.2 °F 88% 29.94 in 10.0 mi Calm Calm - N/A   Scattered Clouds
9:52 AM 62.1 °F 57.9 °F 86% 29.94 in 10.0 mi Calm Calm - N/A   Overcast
10:52 AM 62.1 °F 57.9 °F 86% 29.94 in 10.0 mi Calm Calm - N/A   Overcast
11:44 AM 62.6 °F 60.8 °F 94% 29.95 in 1.8 mi Calm Calm - 0.06 in Rain Heavy Rain
11:52 AM 62.1 °F 60.1 °F 93% 29.95 in 2.5 mi West 6.9 mph - 0.07 in Rain Rain
12:06 PM 62.6 °F 60.8 °F 94% 29.94 in 6.0 mi Variable 5.8 mph - 0.01 in Rain Light Rain
12:33 PM 64.4 °F 60.8 °F 88% 29.95 in 10.0 mi Calm Calm - 0.01 in   Overcast
12:52 PM 63.0 °F 59.0 °F 87% 29.95 in 10.0 mi Calm Calm - 0.01 in   Overcast
1:52 PM 64.9 °F 57.0 °F 75% 29.93 in 10.0 mi Variable 4.6 mph - N/A   Overcast
2:19 PM 66.2 °F 57.2 °F 73% 29.92 in 10.0 mi Variable 4.6 mph - N/A   Mostly Cloudy
2:30 PM 66.2 °F 55.4 °F 68% 29.91 in 10.0 mi Variable 4.6 mph - N/A   Mostly Cloudy
2:40 PM 66.2 °F 55.4 °F 68% 29.91 in 10.0 mi Variable 4.6 mph - N/A   Overcast
2:52 PM 66.0 °F 55.9 °F 70% 29.92 in 10.0 mi Calm Calm - N/A   Overcast
3:40 PM 64.4 °F 55.4 °F 73% 29.92 in 10.0 mi Calm Calm - 0.00 in   Overcast
3:52 PM 64.9 °F 57.0 °F 75% 29.92 in 10.0 mi Calm Calm - 0.00 in   Overcast
4:07 PM 66.2 °F 53.6 °F 64% 29.91 in 10.0 mi Calm Calm - N/A   Overcast
4:36 PM 64.4 °F 53.6 °F 68% 29.91 in 10.0 mi Calm Calm - N/A   Mostly Cloudy
4:52 PM 64.9 °F 54.0 °F 68% 29.91 in 10.0 mi Variable 4.6 mph - N/A   Partly Cloudy
5:52 PM 62.1 °F 54.0 °F 75% 29.93 in 10.0 mi WSW 5.8 mph - N/A   Overcast
6:52 PM 62.1 °F 53.1 °F 72% 29.94 in 10.0 mi WSW 4.6 mph - N/A   Overcast
7:15 PM 62.6 °F 53.6 °F 72% 29.94 in 10.0 mi Calm Calm - N/A   Overcast
7:52 PM 61.0 °F 55.0 °F 81% 29.94 in 10.0 mi Calm Calm - N/A   Overcast
8:52 PM 60.1 °F 55.0 °F 83% 29.94 in 10.0 mi Calm Calm - N/A   Overcast
9:52 PM 57.9 °F 55.0 °F 90% 29.96 in 10.0 mi Calm Calm - N/A   Overcast
10:52 PM 55.0 °F 54.0 °F 96% 29.96 in 10.0 mi Calm Calm - N/A   Mostly Cloudy
11:52 PM 52.0 °F 51.1 °F 97% 29.97 in 5.0 mi Calm Calm - N/A   Clear